Regional Weather Roundup
Issued by NWS

Home | Current Version | Previous Version | Graphics & Text | Print | Product List | Glossary On
Versions: 1 2 3 4 5 6 7 8 9 10 11 12 13 14 15 16 17 18 19 20 21 22 23 24 25 26 27 28 29 30 31 32 33 34 35 36 37 38 39 40 41 42 43 44 45 46 47 48 49 50
000
ASUS43 KFSD 200902
RWRSD

WEATHER ROUNDUP FOR SOUTH DAKOTA
NATIONAL WEATHER SERVICE SIOUX FALLS SD
300 AM CST SAT JAN 20 2018

NOTE: "FAIR" INDICATES FEW OR NO CLOUDS BELOW 12,000 FEET WITH NO
SIGNIFICANT WEATHER AND/OR OBSTRUCTIONS TO VISIBILITY.


SDZ001>005-009-010-012>017-201000-
NORTHWEST AND NORTH CENTRAL SOUTH DAKOTA

CITY           SKY/WX    TMP DP  RH WIND       PRES   REMARKS
BUFFALO          N/A     35  34  96 W7        29.73F WCI  29
FAITH            N/A     36  33  89 SW6       29.82R
MOBRIDGE       CLOUDY    32  29  88 SE5       29.77R WCI  27
$$

SDZ012>016-024>037-041>051-057-063-072>074-201000-
SOUTHWEST AND SOUTH CENTRAL SOUTH DAKOTA

CITY           SKY/WX    TMP DP  RH WIND       PRES   REMARKS
RAPID CTY ARPT CLOUDY    33  30  88 N8        29.79S WCI  26
PIERRE         CLOUDY    33  31  92 W6        29.82R WCI  28
CUSTER         CLOUDY    30  24  78 N3        29.75S
ELLSWORTH AFB  CLOUDY    35  35  99 N5        29.79S
PHILIP         MOCLDY    29  29 100 NW5       29.81F WCI  24
PINE RIDGE     MOCLDY    27  25  92 E6        29.78S WCI  20
SPEARFISH      MIX PCPN  32  32 100 CALM      29.81R
WINNER         FAIR      33  29  85 NW5       29.82R WCI  29
$$

SDZ004>011-016>023-039-040-201000-
NORTHEAST SOUTH DAKOTA

CITY           SKY/WX    TMP DP  RH WIND       PRES   REMARKS
ABERDEEN       CLOUDY    28  25  88 S6        29.79R WCI  22
WATERTOWN      CLOUDY    26  25  96 CALM      29.78R
BROOKINGS      PTCLDY    30  28  92 MISG        N/A
SISSETON         N/A     32  27  81 W6        29.76R WCI  26
$$

SDZ017-020-022-023-036>040-048>070-201000-
SOUTHEAST SOUTH DAKOTA

CITY           SKY/WX    TMP DP  RH WIND       PRES   REMARKS
SIOUX FALLS    CLOUDY    28  27  96 W3        29.80R
HURON          MOCLDY    27  25  92 NW5       29.82R WCI  22
CHAMBERLAIN    MOCLDY    32  32  99 W5        29.83S WCI  28
MITCHELL       CLEAR     29  27  92 W5        29.83R WCI  24
YANKTON        CLOUDY    32  28  85 W7        29.81R WCI  26
$$

ABBREVIATIONS USED IN REMARKS
   TC - TEMPERATURE IN CELSIUS
  WCI - WIND CHILL INDEX
   HX - HEAT INDEX
  VSB - VISIBILITY




USA.gov is the U.S. government's official web portal to all federal, state and local government web resources and services.